[[{"header":{"parameterUnit":"m.s-1","parameterCategory":1,"la1":30.2991,"la2":30.254,"lo1":-89.0895,"lo2":-89.0444,"dy":0.0017,"dx":0.0017,"nx":28,"ny":28,"refTime":"2025-12-15T09:00:00:Z","depth":0,"parameterNumber":2,"parameterNumberName":"U-component_of_WINDS"},"data":[0,0,0,0,0,0,0,0,0,0,0,0,0,0,0,0,0,0,0,0,0,0,0,0,0,0,0,0,0,0,0,0,0,0,0,0,0,0,0,0,0,0,0,0,0,0,0,0,0,0,0,0,0,0,0,0,0,0,-3.2237,-3.2236,0,-3.2211,-3.221,-3.221,-3.2099,-3.2097,-3.2094,-3.2092,-3.2067,-3.2069,-3.2071,0,0,0,0,0,0,0,0,0,0,0,0,0,-3.2193,-3.2194,-3.2237,-3.2236,-3.2236,-3.2211,-3.221,-3.221,-3.21,-3.2097,-3.2094,-3.2091,-3.2067,-3.2069,-3.2071,0,0,0,0,0,0,0,0,0,0,0,0,0,-3.2194,-3.2195,-3.2237,-3.2178,-3.2172,-3.2211,-3.221,-3.221,-3.21,-3.2097,-3.2093,-3.2089,-3.2066,-3.2069,-3.2071,-3.2165,0,0,-3.2079,-3.2081,0,0,0,0,0,0,0,0,-3.2194,-3.2196,-3.2187,-3.2182,-3.2176,-3.2154,-3.2186,-3.2195,-3.2101,-3.2128,-3.2092,-3.2087,-3.21,-3.2099,-3.2103,-3.2164,-3.2163,-3.208,-3.2081,-3.2082,-3.2083,0,0,0,0,0,0,0,-3.2194,-3.2196,-3.2226,-3.2187,-3.218,-3.2153,-3.2149,-3.2187,-3.2136,-3.2125,-3.2117,-3.2115,-3.2096,-3.2101,-3.2102,-3.2163,-3.208,-3.2082,-3.2084,-3.2085,-3.23,-3.2304,0,0,0,0,0,0,-3.2202,-3.2197,-3.2227,-3.2226,-3.2175,-3.2157,-3.2153,-3.2165,-3.2135,-3.2127,-3.2119,-3.211,-3.2098,-3.2099,-3.21,-3.2208,-3.2082,-3.2085,-3.2086,-3.2296,-3.2301,-3.2306,0,0,0,0,0,0,-3.2201,-3.2206,-3.2228,-3.2209,-3.221,-3.2162,-3.2177,-3.2167,-3.2171,-3.213,-3.2121,-3.2133,-3.2095,-3.2097,-3.215,-3.2206,-3.2086,-3.2088,-3.2291,-3.2298,-3.2303,-3.2425,0,0,0,0,0,0,-3.2201,-3.2206,-3.2241,-3.2211,-3.2211,-3.2278,-3.218,-3.2169,-3.2176,-3.2165,-3.2141,-3.2133,-3.2092,-3.2147,-3.2153,-3.2207,-3.209,-3.2286,-3.2294,-3.2301,-3.2416,-3.2435,-3.2451,0,0,0,0,0,-3.22,-3.2276,-3.2243,-3.2247,-3.2253,-3.2281,-3.2282,-3.2232,-3.2181,-3.2215,-3.2189,-3.2134,-3.2199,-3.2153,-3.2159,-3.2215,-3.2282,-3.2292,-3.2301,-3.2408,-3.2431,-3.245,0,0,0,0,0,0,-3.2315,-3.2271,-3.2234,-3.2303,-3.2297,-3.2262,-3.2304,-3.2258,-3.2266,-3.2255,-3.2194,-3.219,-3.2252,-3.2239,-3.2188,-3.2305,-3.2231,-3.2242,-3.2311,-3.2332,-3.235,-3.2351,-3.2093,0,0,0,0,0,-3.2348,-3.2374,-3.2335,-3.24,-3.2398,-3.2353,-3.2363,-3.2325,-3.2316,-3.2313,-3.229,-3.2285,-3.2304,-3.2317,-3.2333,-3.2414,-3.2407,-3.2456,-3.2473,-3.2488,-3.2498,-3.254,-3.2561,-3.2336,-3.2336,-3.2336,0,0,-3.2417,-3.2397,-3.2417,-3.2422,-3.2413,-3.2441,-3.2351,-3.2385,-3.2405,-3.2318,-3.2367,-3.2351,-3.234,-3.2408,-3.2437,-3.2399,-3.2559,-3.25,-3.2512,-3.2513,-3.2552,-3.2573,-3.2592,-3.2343,-3.2341,-3.234,0,0,-3.2558,-3.2545,-3.2598,-3.259,-3.2577,-3.2546,-3.2559,-3.2532,-3.2518,-3.2566,-3.2501,-3.2526,-3.256,-3.2555,-3.2557,-3.2698,-3.2647,-3.2705,-3.2796,-3.2838,-3.2856,-3.2871,-3.2921,-3.294,-3.2715,-3.2715,-3.2715,0,-3.2646,-3.2685,-3.2631,-3.2669,-3.2674,-3.2596,-3.265,-3.2645,-3.2638,-3.2644,-3.2601,-3.2643,-3.263,-3.2696,-3.273,-3.2735,-3.2748,-3.2706,-3.2857,-3.2872,-3.2886,-3.2933,-3.2952,-3.2722,-3.2721,-3.2721,-3.272,0,-3.2794,-3.2823,-3.2867,-3.2862,-3.2872,-3.2918,-3.2871,-3.2887,-3.285,-3.2824,-3.2874,-3.2857,-3.2867,-3.288,-3.2844,-3.2942,-3.2918,-3.2868,-3.2793,-3.2915,-3.2959,-3.2976,-3.2732,-3.273,-3.2728,-3.2726,0,0,-3.3005,-3.297,-3.2987,-3.2984,-3.2964,-3.2986,-3.3029,-3.3039,-3.3054,-3.3053,-3.3087,-3.3119,-3.3072,-3.3075,-3.3037,-3.3074,-3.3187,-3.3019,-3.3018,-3.3051,-3.3294,-3.3332,-3.3354,-3.3154,-3.3157,-3.316,-3.3295,0,-3.3139,-3.3209,-3.3162,-3.324,-3.3267,-3.3194,-3.3232,-3.3224,-3.3202,-3.3222,-3.3197,-3.322,-3.3156,-3.3157,-3.3191,-3.3166,-3.3235,-3.3156,-3.3186,-3.3188,-3.3191,-3.3376,-3.3416,-3.3544,-3.3312,-3.3314,-3.3317,0,-3.3304,-3.3309,-3.339,-3.3366,-3.3375,-3.341,-3.3415,-3.3435,-3.3426,-3.3407,-3.3411,-3.3364,-3.3405,-3.3332,-3.3389,-3.3336,-3.3346,-3.3336,-3.334,-3.334,-3.3259,-3.3381,-3.3584,-3.3603,-3.3343,-3.3341,-3.3339,0,-3.345,-3.3477,-3.3529,-3.3529,-3.3502,-3.3528,-3.3518,-3.3505,-3.3514,-3.352,-3.3525,-3.3536,-3.3542,-3.3552,-3.351,-3.3461,-3.3572,-3.3496,-3.3558,-3.356,-3.3584,-3.3583,-3.3791,-3.3592,-3.3592,-3.3591,-3.3591,0,-3.3604,-3.3656,-3.3594,-3.3626,-3.3683,-3.3629,-3.3687,-3.367,-3.3659,-3.3687,-3.3626,-3.3654,-3.3597,-3.3619,-3.3587,-3.3639,-3.3642,-3.3628,-3.3619,-3.3634,-3.3635,-3.3639,-3.3628,-3.3596,-3.3595,-3.3594,-3.3594,0,-3.3775,-3.3736,-3.3788,-3.3758,-3.3752,-3.3796,-3.3771,-3.38,-3.3773,-3.381,-3.3815,-3.3775,-3.3798,-3.3757,-3.3776,-3.3754,-3.3827,-3.3804,-3.383,-3.3823,-3.3887,-3.3882,-3.4104,-3.413,-3.3916,-3.3918,-3.3919,0,-3.3876,-3.3914,-3.3889,-3.3903,-3.3897,-3.392,-3.3929,-3.3879,-3.3891,-3.3884,-3.3914,-3.3932,-3.3944,-3.3985,-3.3957,-3.3971,-3.3948,-3.4025,-3.395,-3.3963,-3.3949,-3.3947,-3.3951,-3.404,-3.4043,-3.4045,-3.4047,0,-3.4058,-3.4037,-3.4052,-3.4061,-3.4074,-3.4078,-3.4079,-3.4094,-3.404,-3.4058,-3.408,-3.4089,-3.4108,-3.4127,-3.4135,-3.4126,-3.4078,-3.4071,-3.4086,-3.4101,-3.4114,-3.4107,-3.3871,-3.4066,-3.4064,-3.4062,-3.4061,-3.4061,-3.4196,-3.4227,-3.4215,-3.4234,-3.4229,-3.4231,-3.4257,-3.4234,-3.4252,-3.4263,-3.4232,-3.4263,-3.4254,-3.4259,-3.4255,-3.4279,-3.4245,-3.4267,-3.4272,-3.4278,-3.4289,-3.4111,-3.428,-3.4279,-3.4279,-3.4278,-3.4278,0,-3.4375,-3.4364,-3.4382,-3.4385,-3.44,-3.4354,-3.4352,-3.4368,-3.4396,-3.4391,-3.4404,-3.4431,-3.4449,-3.4424,-3.4438,-3.4462,-3.4441,-3.4468,-3.4465,-3.4464,-3.4318,-3.4303,-3.4485,-3.4485,-3.4485,-3.4485,-3.4485,-3.4485,-3.447,-3.452,-3.4498,-3.4546,-3.4534,-3.4562,-3.4566,-3.4568,-3.4564,-3.4596,-3.4611,-3.4594,-3.4582,-3.4595,-3.461,-3.4602,-3.461,-3.4645,-3.463,-3.4494,-3.4474,-3.4455,-3.444,-3.4647,-3.4648,-3.4773,-3.4774,-3.4775]},{"header":{"parameterUnit":"m.s-1","parameterCategory":1,"la1":30.2991,"la2":30.254,"lo1":-89.0895,"lo2":-89.0444,"dy":0.0017,"dx":0.0017,"nx":28,"ny":28,"refTime":"2025-12-15T09:00:00:Z","depth":0,"parameterNumber":3,"parameterNumberName":"V-component_of_WINDS"},"data":[0,0,0,0,0,0,0,0,0,0,0,0,0,0,0,0,0,0,0,0,0,0,0,0,0,0,0,0,0,0,0,0,0,0,0,0,0,0,0,0,0,0,0,0,0,0,0,0,0,0,0,0,0,0,0,0,0,0,0.8163,0.8163,0,0.8195,0.8196,0.8196,0.829,0.8292,0.8294,0.8296,0.8324,0.8323,0.8322,0,0,0,0,0,0,0,0,0,0,0,0,0,0.8178,0.8177,0.8163,0.8163,0.8164,0.8195,0.8196,0.8196,0.8289,0.8292,0.8294,0.8297,0.8324,0.8323,0.8321,0,0,0,0,0,0,0,0,0,0,0,0,0,0.8187,0.8177,0.8163,0.8214,0.8219,0.8195,0.8196,0.8196,0.8289,0.8292,0.8295,0.8298,0.8325,0.8323,0.8321,0.8249,0,0,0.8316,0.8315,0,0,0,0,0,0,0,0,0.8186,0.8186,0.8206,0.8211,0.8216,0.8242,0.8212,0.8214,0.8288,0.8262,0.8296,0.8299,0.8294,0.8295,0.8294,0.825,0.8251,0.8316,0.8315,0.8314,0.8313,0,0,0,0,0,0,0,0.8186,0.8185,0.8176,0.8206,0.8212,0.8234,0.8239,0.8212,0.826,0.8265,0.8272,0.8274,0.8297,0.8295,0.8295,0.8251,0.8316,0.8314,0.8313,0.8312,0.815,0.8147,0,0,0,0,0,0,0.8178,0.8184,0.8175,0.8177,0.8209,0.8232,0.8237,0.823,0.8261,0.8268,0.8272,0.8279,0.8297,0.8297,0.8296,0.8214,0.8314,0.8312,0.8311,0.8154,0.815,0.8146,0,0,0,0,0,0,0.8178,0.8176,0.8173,0.8182,0.8184,0.8228,0.822,0.8229,0.8228,0.8266,0.8275,0.8262,0.8299,0.8299,0.826,0.8216,0.8311,0.831,0.8157,0.8152,0.8148,0.8047,0,0,0,0,0,0,0.8178,0.8176,0.8149,0.8181,0.8183,0.8137,0.8217,0.8228,0.8225,0.8235,0.8259,0.8266,0.8302,0.8262,0.8259,0.8215,0.8308,0.8161,0.8155,0.8149,0.8055,0.8039,0.8026,0,0,0,0,0,0.8178,0.8118,0.8148,0.8146,0.8151,0.8135,0.8135,0.818,0.8221,0.8195,0.8219,0.8265,0.8222,0.8258,0.8254,0.821,0.8164,0.8157,0.815,0.8061,0.8042,0.8027,0,0,0,0,0,0,0.8078,0.8123,0.8156,0.8105,0.8116,0.8151,0.8118,0.8158,0.8156,0.8164,0.8218,0.8223,0.8176,0.8189,0.8229,0.8141,0.8201,0.8192,0.8134,0.8117,0.8103,0.81,0.8307,0,0,0,0,0,0.8051,0.8035,0.8075,0.8026,0.803,0.8073,0.8067,0.8101,0.8113,0.8117,0.8139,0.8148,0.8137,0.8128,0.8119,0.8058,0.8064,0.8025,0.8011,0.7999,0.7991,0.7959,0.7943,0.8122,0.8122,0.8122,0,0,0.7992,0.8015,0.8002,0.8006,0.8018,0.8,0.8076,0.8053,0.8039,0.8113,0.8079,0.8095,0.8108,0.8058,0.8037,0.8067,0.7943,0.799,0.798,0.7978,0.795,0.7933,0.7918,0.8117,0.8118,0.8119,0,0,0.7877,0.7893,0.7854,0.7865,0.7883,0.7913,0.7903,0.7933,0.7947,0.7914,0.7969,0.7953,0.7933,0.794,0.7941,0.783,0.7872,0.7826,0.7752,0.772,0.7706,0.7694,0.7654,0.7639,0.7818,0.7818,0.7817,0,0.7801,0.7777,0.7828,0.7803,0.7803,0.7872,0.7832,0.784,0.7853,0.7851,0.7886,0.7862,0.7876,0.7829,0.7802,0.78,0.7791,0.7823,0.7705,0.7693,0.7682,0.7644,0.7629,0.7812,0.7813,0.7813,0.7814,0,0.7684,0.7666,0.7633,0.7646,0.7643,0.761,0.7655,0.7645,0.7679,0.7705,0.767,0.7689,0.7686,0.7678,0.771,0.7635,0.7653,0.7695,0.7756,0.7658,0.7624,0.761,0.7804,0.7806,0.7807,0.7809,0,0,0.7504,0.7549,0.7535,0.7543,0.7568,0.7555,0.7525,0.7525,0.7515,0.7522,0.7498,0.748,0.752,0.7521,0.7554,0.7527,0.7438,0.7573,0.7574,0.7546,0.7356,0.7323,0.7306,0.7466,0.7464,0.7462,0.7354,0,0.7395,0.7348,0.7394,0.7338,0.7322,0.7388,0.7362,0.7374,0.7397,0.7386,0.7412,0.7398,0.7452,0.7453,0.7429,0.7454,0.74,0.7462,0.7443,0.7441,0.7436,0.7288,0.7253,0.7151,0.7341,0.7339,0.7338,0,0.7261,0.7264,0.7206,0.7237,0.7232,0.7208,0.7212,0.7201,0.7216,0.7235,0.7237,0.7279,0.7251,0.7311,0.7273,0.7315,0.731,0.7321,0.7318,0.7317,0.7383,0.7282,0.7119,0.7103,0.7317,0.7319,0.732,0,0.7135,0.7125,0.709,0.7094,0.7129,0.7111,0.7124,0.7143,0.7139,0.7142,0.714,0.7139,0.7137,0.7135,0.7175,0.7215,0.7131,0.7195,0.7145,0.7144,0.7123,0.7124,0.6956,0.7121,0.7122,0.7122,0.7122,0,0.7007,0.6969,0.7034,0.7012,0.6971,0.7024,0.6982,0.7002,0.7018,0.7,0.7057,0.7039,0.7094,0.7081,0.7112,0.7075,0.7074,0.7088,0.7096,0.7082,0.708,0.7079,0.7086,0.7118,0.7119,0.7119,0.712,0,0.6859,0.6901,0.6867,0.6904,0.6912,0.688,0.6911,0.6892,0.692,0.6897,0.6894,0.6937,0.6925,0.6966,0.696,0.6981,0.6927,0.6947,0.6922,0.6928,0.6875,0.6879,0.67,0.6679,0.6858,0.6856,0.6855,0,0.6775,0.6748,0.6782,0.6775,0.6786,0.6774,0.6772,0.6823,0.6818,0.6834,0.6813,0.6806,0.6803,0.6781,0.681,0.6806,0.6827,0.6764,0.6826,0.6813,0.6825,0.6826,0.6823,0.6751,0.6749,0.6747,0.6745,0,0.662,0.6643,0.6638,0.6641,0.6637,0.6641,0.6649,0.664,0.6695,0.6686,0.6676,0.6674,0.6669,0.6661,0.6664,0.6676,0.6719,0.6726,0.6714,0.6699,0.6685,0.6691,0.6886,0.673,0.6731,0.6732,0.6733,0.6734,0.6501,0.648,0.6502,0.6495,0.6507,0.6513,0.6497,0.6524,0.6516,0.6518,0.6548,0.6531,0.6548,0.6556,0.6565,0.6552,0.658,0.6563,0.6559,0.6553,0.6544,0.6688,0.6552,0.6553,0.6553,0.6554,0.6554,0,0.6349,0.6367,0.636,0.637,0.6365,0.6409,0.642,0.6411,0.6397,0.641,0.6406,0.6394,0.6387,0.6417,0.6414,0.6398,0.6418,0.6395,0.6396,0.6398,0.6519,0.6529,0.638,0.638,0.638,0.638,0.638,0.638,0.6269,0.6236,0.6261,0.6234,0.6252,0.6238,0.624,0.6246,0.6257,0.6241,0.6237,0.6257,0.6276,0.6276,0.6271,0.628,0.6276,0.6246,0.6261,0.6373,0.639,0.6406,0.6416,0.6245,0.6245,0.6142,0.6141,0.6141]}]]